TimeCDT,TemperatureF,Dew PointF,Humidity,Sea Level PressureIn,VisibilityMPH,Wind Direction,Wind SpeedMPH,Gust SpeedMPH,PrecipitationIn,Events,Conditions,WindDirDegrees,DateUTC
12:48 AM,51.8,48.2,88,30.07,10.0,North,8.1,-,N/A,,Mostly Cloudy,360,2013-05-10 05:48:00
12:52 AM,52.0,48.9,89,30.07,10.0,North,8.1,-,N/A,,Mostly Cloudy,10,2013-05-10 05:52:00
1:52 AM,48.9,46.0,90,30.08,10.0,NE,11.5,18.4,N/A,,Overcast,40,2013-05-10 06:52:00
2:52 AM,48.9,45.0,86,30.08,10.0,NNE,10.4,-,N/A,,Overcast,20,2013-05-10 07:52:00
3:19 AM,48.2,44.6,87,30.07,10.0,NE,12.7,-,N/A,,Overcast,40,2013-05-10 08:19:00
3:52 AM,48.0,45.0,89,30.09,10.0,North,8.1,-,N/A,,Overcast,360,2013-05-10 08:52:00
4:10 AM,48.2,44.6,87,30.08,10.0,North,9.2,-,N/A,,Overcast,360,2013-05-10 09:10:00
4:52 AM,48.0,44.1,86,30.09,10.0,North,8.1,-,N/A,,Overcast,10,2013-05-10 09:52:00
5:24 AM,48.2,44.6,87,30.09,10.0,North,9.2,-,N/A,,Overcast,350,2013-05-10 10:24:00
5:52 AM,46.9,44.1,90,30.09,10.0,North,12.7,-,N/A,,Overcast,360,2013-05-10 10:52:00
6:17 AM,46.4,42.8,87,30.09,10.0,North,8.1,-,N/A,,Mostly Cloudy,360,2013-05-10 11:17:00
6:52 AM,45.0,41.0,86,30.11,10.0,NNE,8.1,-,N/A,,Clear,30,2013-05-10 11:52:00
7:52 AM,45.0,37.9,76,30.13,10.0,NNW,9.2,-,N/A,,Overcast,340,2013-05-10 12:52:00
8:52 AM,46.9,37.9,71,30.13,10.0,North,6.9,-,N/A,,Overcast,350,2013-05-10 13:52:00
9:52 AM,48.9,39.9,71,30.14,10.0,NNW,6.9,-,N/A,,Overcast,340,2013-05-10 14:52:00
10:52 AM,53.1,44.1,71,30.13,10.0,NW,4.6,-,N/A,,Mostly Cloudy,320,2013-05-10 15:52:00
11:52 AM,57.0,46.9,69,30.11,10.0,NW,8.1,-,N/A,,Clear,320,2013-05-10 16:52:00
12:52 PM,62.1,48.9,62,30.10,10.0,NNW,10.4,-,N/A,,Clear,330,2013-05-10 17:52:00
1:52 PM,64.9,50.0,58,30.09,10.0,NNW,10.4,-,N/A,,Clear,330,2013-05-10 18:52:00
2:52 PM,66.9,46.0,47,30.07,10.0,NNW,10.4,-,N/A,,Clear,330,2013-05-10 19:52:00
3:52 PM,66.9,46.0,47,30.05,10.0,NW,12.7,-,N/A,,Partly Cloudy,320,2013-05-10 20:52:00
4:52 PM,68.0,46.0,45,30.03,10.0,North,10.4,-,N/A,,Clear,350,2013-05-10 21:52:00
5:52 PM,69.1,45.0,42,30.01,10.0,NNW,12.7,19.6,N/A,,Clear,330,2013-05-10 22:52:00
6:52 PM,68.0,44.1,42,29.99,10.0,NNW,8.1,-,N/A,,Clear,330,2013-05-10 23:52:00
7:52 PM,66.9,44.1,44,30.00,10.0,NW,8.1,-,N/A,,Clear,310,2013-05-11 00:52:00
8:52 PM,62.1,45.0,53,30.01,10.0,West,4.6,-,N/A,,Clear,280,2013-05-11 01:52:00
9:52 PM,55.0,44.1,67,30.03,10.0,SW,5.8,-,N/A,,Clear,220,2013-05-11 02:52:00
10:52 PM,51.1,45.0,80,30.03,8.0,SW,4.6,-,N/A,,Clear,220,2013-05-11 03:52:00
11:52 PM,55.0,45.0,69,30.01,10.0,West,5.8,-,N/A,,Mostly Cloudy,260,2013-05-11 04:52:00